STARLINK-32516 (62176 NORAD) Tracking and Keplerian Element Data

This shows tracking and keplerian element data for the satellite.

Feedback or suggestion? Click here.




ElementValue
Catalog62176
NameSTARLINK-32516
Epoch Orbit593
Epoch Day34.83335648
Epoch Year2025
RAAN90.4358
Inclination69.9992
Eccentricity0.00033
Argument of Perigee274.2192
Mean Anonmoly33.9461
Mean Motion15.16098439
Decay Rate-0.01417845
L11 62176U 24225P 25034.83335648 -.01417845 00000+0 -80000-1 0 9991
L22 62176 69.9992 90.4358 0003300 274.2192 33.9461 15.16098439 5939



Live tracking and technical data element details for STARLINK-32516 (NORAD 62176). STARLINK-32516 can be tracked NOW for your location showing map with azimuth and elevation plus other details from your city location.







IsCatalogInMostPopularTable: catalog: 62176, numindb: 17
Update: records affected: 1



GetName: 62176 STARLINK-32516

Hit Count: updated at: Mon, 19 May 2025 02:25:54 GMT